Weather History for Shepherd Bay, NU

Change the Weather History Date:

Thursday, May 3, 2012

  Actual Average Record
Temperature  
Mean Temperature -5 °F -  
Max Temperature 1 °F - - ()
Min Temperature -11 °F - - ()
Degree Days  
Heating Degree Days 70    
Moisture  
Dew Point -    
Average Humidity    
Maximum Humidity    
Minimum Humidity    
Precipitation  
Precipitation 0.00 in - - ()
Sea Level Pressure  
Sea Level Pressure 30.22 in    
Wind  
Wind Speed 3 mph ()    
Max Wind Speed 8 mph    
Max Gust Speed -    
Visibility 3.6 miles    
Events Snow    
T = Trace of Precipitation, MM = Missing Value Source: Averaged Metar Reports

Daily Weather History Graph

Daily Weather History Graph

Search for Another Location

Airport:

Trip Planner

Search our weather history database for the weather conditions in past years. The results will help you decide how hot, cold, wet, or windy it might be!

Date:

Astronomy

May. 03, 2012 Rise Set
Actual Time 3:47 AM CDT 10:37 PM CDT
Civil Twilight 1:43 AM CDT 12:38 AM CDT
Nautical Twilight Sun does not rise Sun does not rise
Astronomical Twilight Sun does not rise Sun does not rise
Moon 6:47 PM CDT (5/3) 3:31 AM CDT (5/3)
Length of Visible Light 22h 55m
Length of Day
18h 49m
Waxing Gibbous, 91% of the Moon is Illuminated
May 3
Waxing Gibbous
May 5
Full
May 12
Last Quarter
May 20
New
May 28
First Quarter

Hourly Weather History & Observations

Time (CDT) Temp. Windchill Dew Point Humidity Pressure Visibility Wind Dir Wind Speed Gust Speed Precip Events Conditions
12:00 AM -4.0 °F -14.6 °F - N/A% 30.18 in 0.1 mi ENE 4.6 mph - N/A   Clear
12:11 AM -4.0 °F -16.3 °F - N/A% 30.15 in 0.1 mi East 5.8 mph - N/A   Clear
12:50 AM -4.0 °F -12.4 °F - N/A% 30.15 in 0.1 mi ESE 3.5 mph - N/A   Clear
1:00 AM -5 °F - - % 30.18 in 0 mi ESE 3.5 mph - -  
1:00 AM -4.0 °F -12.4 °F - N/A% 30.18 in 0.1 mi ESE 3.5 mph - N/A   Clear
1:08 AM -4.0 °F - - N/A% 30.16 in 0.1 mi SE 2.3 mph - N/A Snow Light Snow
1:24 AM -4.0 °F -12.4 °F - N/A% 30.16 in 0.1 mi East 3.5 mph - N/A   Clear
2:00 AM -5.8 °F - - N/A% 30.19 in 0.1 mi Calm Calm - N/A   Clear
3:00 AM -7.6 °F - - N/A% 30.19 in 0.1 mi NNE 2.3 mph - N/A   Clear
3:18 AM -7.6 °F - - N/A% 30.17 in 0.2 mi North 2.3 mph - N/A   Clear
3:39 AM -9.4 °F - - N/A% 30.17 in 0.1 mi NNE 2.3 mph - N/A   Clear
4:00 AM -10 °F - - % 30.19 in 0 mi NNE 2.3 mph - -  
4:00 AM -9.4 °F - - N/A% 30.19 in 0.1 mi Calm Calm - N/A   Clear
5:00 AM -9.4 °F - - N/A% 30.20 in 0.1 mi Calm Calm - N/A   Clear
5:59 AM -7.6 °F - - N/A% 30.18 in 0.2 mi Calm Calm - N/A   Clear
6:00 AM -7.6 °F - - N/A% 30.20 in 0.2 mi Calm Calm - N/A   Clear
7:00 AM -7 °F - - % 30.21 in 0 mi ENE 2.3 mph - -  
7:00 AM -5.8 °F - - N/A% 30.21 in 0.2 mi ENE 2.3 mph - N/A   Clear
7:57 AM -5.8 °F -14.5 °F - N/A% 30.20 in 0.1 mi ENE 3.5 mph - N/A   Clear
8:00 AM -5.8 °F -14.5 °F - N/A% 30.23 in 0.1 mi ENE 3.5 mph - N/A   Clear
8:59 AM -5.8 °F -16.7 °F - N/A% 30.19 in 0.2 mi East 4.6 mph - N/A   Clear
9:00 AM -5.8 °F -18.4 °F - N/A% 30.22 in 0.2 mi East 5.8 mph - N/A   Clear
9:31 AM -4.0 °F - - N/A% 30.20 in 0.5 mi SE 2.3 mph - N/A   Clear
9:33 AM -4.0 °F - - N/A% 30.20 in 0.4 mi SSE 2.3 mph - N/A   Clear
10:00 AM -4 °F - - % 30.22 in 0 mi ESE 3.5 mph - -  
10:00 AM -4.0 °F -12.4 °F - N/A% 30.22 in 0.4 mi ESE 3.5 mph - N/A   Clear
10:28 AM -5.8 °F -16.7 °F - N/A% 30.19 in 0.5 mi SE 4.6 mph - N/A   Clear
10:44 AM -4.0 °F -12.4 °F - N/A% 30.19 in 1.0 mi SE 3.5 mph - N/A   Clear
11:00 AM -4.0 °F -12.4 °F - N/A% 30.23 in 1.4 mi South 3.5 mph - N/A   Clear
11:10 AM -4.0 °F -12.4 °F - N/A% 30.20 in 3.0 mi South 3.5 mph - N/A   Clear
11:20 AM -4.0 °F -12.4 °F - N/A% 30.20 in 4.0 mi SSE 3.5 mph - N/A   Clear
12:00 PM -2.2 °F - - N/A% 30.23 in 8.0 mi SSW 2.3 mph - N/A   Overcast
12:56 PM -0.4 °F - - N/A% 30.21 in 9.0 mi South 2.3 mph - N/A   Overcast
12:57 PM -0.4 °F - - N/A% 30.21 in 9.0 mi South 2.3 mph - N/A   Overcast
1:00 PM -2 °F - - % 30.23 in 9 mi South 2.3 mph - -   Overcast
1:00 PM -2.2 °F - - N/A% 30.23 in 9.0 mi South 2.3 mph - N/A   Overcast
1:05 PM -2.2 °F - - N/A% 30.21 in 9.0 mi South 2.3 mph - N/A   Partly Cloudy
1:14 PM -4.0 °F - - N/A% 30.22 in 9.0 mi SW 2.3 mph - N/A   Mostly Cloudy
1:17 PM -2.2 °F - - N/A% 30.22 in 9.0 mi SSW 2.3 mph - N/A   Overcast
1:48 PM -2.2 °F -12.5 °F - N/A% 30.21 in 9.0 mi SE 4.6 mph - N/A   Overcast
2:00 PM -2.2 °F -12.5 °F - N/A% 30.24 in 9.0 mi SE 4.6 mph - N/A   Mostly Cloudy
2:04 PM -2.2 °F -12.5 °F - N/A% 30.21 in 9.0 mi SE 4.6 mph - N/A   Partly Cloudy
2:18 PM -2.2 °F -12.5 °F - N/A% 30.21 in 9.0 mi South 4.6 mph - N/A   Mostly Cloudy
2:39 PM -2.2 °F -12.5 °F - N/A% 30.22 in 9.0 mi South 4.6 mph - N/A   Overcast
3:00 PM -0.4 °F -10.4 °F - N/A% 30.25 in 9.0 mi South 4.6 mph - N/A   Overcast
3:01 PM -0.4 °F -10.4 °F - N/A% 30.22 in 9.0 mi SSW 4.6 mph - N/A   Overcast
3:27 PM 1.4 °F -9.9 °F - N/A% 30.22 in 9.0 mi SSW 5.8 mph - N/A   Overcast
3:55 PM -0.4 °F -12.0 °F - N/A% 30.23 in 9.0 mi South 5.8 mph - N/A   Partly Cloudy
4:00 PM -1 °F - - % 30.25 in 9 mi SSW 5.8 mph - -  
4:00 PM -0.4 °F -10.4 °F - N/A% 30.25 in 9.0 mi SSW 4.6 mph - N/A   Partly Cloudy
5:00 PM -2.2 °F -12.5 °F - N/A% 30.25 in 9.0 mi SSW 4.6 mph - N/A   Clear
6:00 PM -0.4 °F -8.3 °F - N/A% 30.26 in 9.0 mi SSW 3.5 mph - N/A   Partly Cloudy
6:07 PM -0.4 °F -10.4 °F - N/A% 30.24 in 9.0 mi SSW 4.6 mph - N/A   Mostly Cloudy
6:13 PM -0.4 °F -8.3 °F - N/A% 30.24 in 9.0 mi SSW 3.5 mph - N/A   Mostly Cloudy
6:47 PM 1.4 °F -6.2 °F - N/A% 30.24 in 9.0 mi SSW 3.5 mph - N/A   Overcast
6:48 PM 1.4 °F - - N/A% 30.24 in 9.0 mi SSW 2.3 mph - N/A   Overcast
7:00 PM -1 °F - - % 30.27 in 9 mi SSE 3.5 mph - -  
7:00 PM -0.4 °F -8.3 °F - N/A% 30.27 in 9.0 mi SSE 3.5 mph - N/A   Partly Cloudy
7:01 PM -0.4 °F -8.3 °F - N/A% 30.24 in 9.0 mi SSE 3.5 mph - N/A   Partly Cloudy
8:00 PM -2.2 °F -15.6 °F - N/A% 30.28 in 9.0 mi South 6.9 mph - N/A   Clear
8:35 PM -2.2 °F -12.5 °F - N/A% 30.26 in 2.8 mi SSE 4.6 mph - N/A   Clear
8:41 PM -2.2 °F -12.5 °F - N/A% 30.26 in 1.1 mi South 4.6 mph - N/A   Clear
8:42 PM -4.0 °F -14.6 °F - N/A% 30.26 in 0.8 mi South 4.6 mph - N/A   Clear
8:43 PM -4.0 °F -14.6 °F - N/A% 30.26 in 0.6 mi South 4.6 mph - N/A   Clear
8:45 PM -4.0 °F -14.6 °F - N/A% 30.26 in 0.4 mi South 4.6 mph - N/A   Clear
8:49 PM -4.0 °F -14.6 °F - N/A% 30.26 in 0.1 mi SSE 4.6 mph - N/A   Clear
8:57 PM -4.0 °F -14.6 °F - N/A% 30.26 in 0.1 mi SSE 4.6 mph - N/A   Clear
9:00 PM -4.0 °F -14.6 °F - N/A% 30.29 in 0.1 mi SE 4.6 mph - N/A   Clear
9:34 PM -5.8 °F -18.4 °F - N/A% 30.26 in 0.1 mi SSE 5.8 mph - N/A   Clear
10:00 PM -8 °F - - % 30.28 in 0 mi SE 5.8 mph - -  
10:00 PM -7.6 °F -20.6 °F - N/A% 30.28 in 0.1 mi SE 5.8 mph - N/A   Clear
10:17 PM -9.4 °F -22.7 °F - N/A% 30.26 in 0.1 mi ESE 5.8 mph - N/A   Clear
10:21 PM -9.4 °F -22.7 °F - N/A% 30.26 in 0.1 mi East 5.8 mph - N/A   Clear
10:30 PM -9.4 °F -20.9 °F - N/A% 30.26 in 0.1 mi ESE 4.6 mph - N/A Snow Light Snow
10:33 PM -9.4 °F -20.9 °F - N/A% 30.26 in 0.1 mi ESE 4.6 mph - N/A Snow Light Snow
10:41 PM -9.4 °F -24.3 °F - N/A% 30.26 in 0.4 mi ESE 6.9 mph - N/A Snow Light Snow
10:45 PM -11.2 °F -26.4 °F - N/A% 30.26 in 0.4 mi East 6.9 mph - N/A   Clear
11:09 PM -11.2 °F -27.8 °F - N/A% 30.26 in 0.1 mi ESE 8.1 mph - N/A   Clear